Location: Newark
(39.8867°N, 94.3600°W)
Time: 18:41:02
(UTC+00:00)

N. Korean satellite - Pass Details

Date: 27 January 2020
Orbit: 456 x 506 km, 97.2° (Epoch: 17 February)

Event Time Altitude Azimuth Distance (km) Brightness Sun altitude
Rises 12:43:47 0° 359° (N) 2,546 10.0 -9.2°
Reaches altitude 10° 12:46:02 10° 347° (NNW) 1,671 9.0 -8.8°
Maximum altitude 12:49:07 27° 288° (WNW) 964 7.5 -8.2°
Drops below altitude 10° 12:52:13 10° 229° (SW) 1,683 9.0 -7.7°
Sets 12:54:29 0° 217° (SW) 2,569 10.0 -7.3°
